Weather History for CYVR - January, 2014

Change the Weather History Date:

Wednesday, January 29, 2014

  Actual Average Record
Temperature  
Mean Temperature 43 °F -  
Max Temperature 45 °F 43 °F 50 °F (1998)
Min Temperature 41 °F 34 °F 24 °F (2002)
Degree Days  
Heating Degree Days 22    
Moisture  
Dew Point 42 °F    
Average Humidity 95    
Maximum Humidity 100    
Minimum Humidity 81    
Precipitation  
Precipitation 0.12 in - - ()
Sea Level Pressure  
Sea Level Pressure 29.76 in    
Wind  
Wind Speed 9 mph ()    
Max Wind Speed 23 mph    
Max Gust Speed -    
Visibility 10.5 miles    
Events Rain    
Averages and records for this station are not official NWS values.
T = Trace of Precipitation, MM = Missing Value Source: Averaged Metar Reports

Daily Weather History Graph

Daily Weather History Graph

Search for Another Location

Airport or City:

Trip Planner

Search our weather history database for the weather conditions in past years. The results will help you decide how hot, cold, wet, or windy it might be!

Date:

Astronomy

Jan. 29, 2014 Rise Set
Actual Time 7:47 AM PST 5:04 PM PST
Civil Twilight 7:13 AM PST 5:39 PM PST
Nautical Twilight 6:34 AM PST 6:17 PM PST
Astronomical Twilight 5:57 AM PST 6:55 PM PST
Moon 6:29 AM PST (1/29) 4:11 PM PST (1/29)
Length of Visible Light 10h 26m
Length of Day
9h 17m
Waning Crescent, 2% of the Moon is Illuminated
Jan 29
Waning Crescent
Jan 30
New
Feb 6
First Quarter
Feb 14
Full
Feb 22
Last Quarter

Hourly Weather History & Observations

Time (PST) Temp. Windchill Dew Point Humidity Pressure Visibility Wind Dir Wind Speed Gust Speed Precip Events Conditions
12:00 AM 42.8 °F 38.6 °F 42.8 °F 100% 29.94 in 15.0 mi NW 6.9 mph - N/A   Overcast
1:00 AM 42.8 °F 38.0 °F 42.8 °F 100% 29.90 in 12.0 mi NW 8.1 mph - N/A   Overcast
2:00 AM 42.8 °F 37.5 °F 42.8 °F 100% 29.86 in 12.0 mi WNW 9.2 mph - N/A   Overcast
2:29 AM 42.8 °F 36.6 °F 42.8 °F 100% 29.86 in 8.0 mi WNW 11.5 mph - N/A Rain Light Rain
3:00 AM 42.8 °F 35.4 °F 42.8 °F 100% 29.85 in 6.0 mi WNW 15.0 mph - N/A Rain Light Rain
4:00 AM 43 °F - 42 °F 97% 29.83 in 6 mi WNW 8.1 mph - - Rain Light Rain
4:00 AM 42.8 °F 38.6 °F 42.8 °F 100% 29.83 in 6.0 mi WNW 6.9 mph - N/A Rain Light Rain
4:12 AM 42.8 °F 37.0 °F 42.8 °F 100% 29.83 in 6.0 mi NW 10.4 mph - N/A Rain Light Rain
4:49 AM 42.8 °F 38.0 °F 42.8 °F 100% 29.81 in 8.0 mi NW 8.1 mph - N/A Rain Light Rain
5:00 AM 42.8 °F 38.6 °F 42.8 °F 100% 29.81 in 8.0 mi WNW 6.9 mph - N/A Rain Light Rain
6:00 AM 42.8 °F 41.1 °F 42.8 °F 100% 29.79 in 8.0 mi NW 3.5 mph - N/A Rain Light Rain
7:00 AM 42.8 °F - 42.8 °F 100% 29.76 in 7.0 mi ENE 2.3 mph - N/A Rain Light Rain
7:41 AM 41.0 °F - 41.0 °F 100% 29.75 in 6.0 mi Variable 2.3 mph - N/A Rain Light Rain
8:00 AM 42.8 °F 40.1 °F 41.0 °F 93% 29.75 in 6.0 mi West 4.6 mph - N/A Rain Light Rain
8:19 AM 42.8 °F 39.3 °F 42.8 °F 100% 29.75 in 8.0 mi WNW 5.8 mph - N/A Rain Light Rain
8:46 AM 42.8 °F 39.3 °F 42.8 °F 100% 29.75 in 6.0 mi NW 5.8 mph - N/A Rain Light Rain
9:00 AM 42.8 °F 38.6 °F 42.8 °F 100% 29.75 in 6.0 mi NW 6.9 mph - N/A Rain Light Rain
9:05 AM 42.8 °F 38.6 °F 42.8 °F 100% 29.74 in 7.0 mi NW 6.9 mph - N/A Rain Light Rain
9:14 AM 42.8 °F 38.6 °F 42.8 °F 100% 29.74 in 7.0 mi NW 6.9 mph - N/A Rain Light Rain
9:45 AM 42.8 °F 37.5 °F 42.8 °F 100% 29.73 in 7.0 mi NW 9.2 mph - N/A Rain Light Rain
9:54 AM 42.8 °F 37.0 °F 42.8 °F 100% 29.73 in 7.0 mi NW 10.4 mph - N/A Rain Light Rain
10:00 AM 43 °F - 43 °F 98% 29.73 in 7 mi NW 10.4 mph - - Rain Light Rain
10:00 AM 42.8 °F 37.0 °F 42.8 °F 100% 29.73 in 7.0 mi NW 10.4 mph - N/A Rain Light Rain
10:13 AM 42.8 °F 37.0 °F 42.8 °F 100% 29.73 in 8.0 mi NW 10.4 mph - N/A Rain Light Rain
10:19 AM 42.8 °F 36.2 °F 42.8 °F 100% 29.73 in 8.0 mi NW 12.7 mph - N/A Rain Light Rain
10:39 AM 42.8 °F 36.6 °F 42.8 °F 100% 29.73 in 8.0 mi NW 11.5 mph - N/A Rain Light Rain
11:00 AM 42.8 °F 37.5 °F 42.8 °F 100% 29.72 in 15.0 mi NW 9.2 mph - N/A Rain Light Rain
11:48 AM 44.6 °F 37.4 °F 42.8 °F 93% 29.71 in 10.0 mi WNW 16.1 mph - N/A Rain Light Rain
12:00 PM 44.6 °F 37.2 °F 42.8 °F 93% 29.70 in 12.0 mi WNW 17.3 mph - N/A Rain Light Rain
12:38 PM 44.6 °F 37.4 °F 42.8 °F 93% 29.69 in 15.0 mi WNW 16.1 mph - N/A   Overcast
1:00 PM 44.6 °F 36.9 °F 42.8 °F 93% 29.69 in 15.0 mi WNW 18.4 mph - N/A   Overcast
1:16 PM 44.6 °F 36.9 °F 42.8 °F 93% 29.69 in 15.0 mi WNW 18.4 mph - N/A   Overcast
2:00 PM 44.6 °F 36.9 °F 42.8 °F 93% 29.68 in 15.0 mi WNW 18.4 mph - N/A   Overcast
3:00 PM 44.6 °F 36.6 °F 41.0 °F 87% 29.68 in 15.0 mi WNW 19.6 mph - N/A   Scattered Clouds
4:00 PM 45 °F - 41 °F 82% 29.68 in 15 mi WNW 17.3 mph - -   Partly Cloudy
4:00 PM 44.6 °F 37.4 °F 41.0 °F 87% 29.68 in 15.0 mi WNW 16.1 mph - N/A   Scattered Clouds
5:00 PM 44.6 °F 35.9 °F 41.0 °F 87% 29.69 in 15.0 mi West 23.0 mph - N/A   Scattered Clouds
6:00 PM 42.8 °F 38.0 °F 39.2 °F 87% 29.72 in 15.0 mi WNW 8.1 mph - N/A   Scattered Clouds
7:00 PM 42.8 °F 36.2 °F 39.2 °F 87% 29.73 in 15.0 mi West 12.7 mph - N/A   Partly Cloudy
8:00 PM 42.8 °F 35.8 °F 37.4 °F 81% 29.74 in 15.0 mi WNW 13.8 mph - N/A   Partly Cloudy
9:00 PM 42.8 °F 35.1 °F 39.2 °F 87% 29.74 in 15.0 mi WNW 16.1 mph - N/A   Mostly Cloudy
10:00 PM 42 °F - 39 °F 86% 29.77 in 15 mi West 10.4 mph - -   Mostly Cloudy
10:00 PM 42.8 °F 37.5 °F 39.2 °F 87% 29.76 in 15.0 mi West 9.2 mph - N/A   Mostly Cloudy
11:00 PM 42.8 °F 36.6 °F 37.4 °F 81% 29.78 in 15.0 mi West 11.5 mph - N/A   Mostly Cloudy